星链-6051 (STARLINK-6051 )

导读

STARLINK-6051是美国SpaceX公司星链(Starlink)低轨互联网卫星星座中的一员,于2023年5月10日发射入轨。它属于星链第二代低轨卫星,依托星链星座部署,为全球提供高速低延迟宽带互联网服务,可覆盖偏远地区,同时支持海事、航空移动场景联网,星链星座规划总规模超四万颗,该卫星是SpaceX扩张星链网络的重要组成部分。

Basic Information
目录编号:
56463
目录名称:
STARLINK-6051
国际标识:
2023-064R
轨道中心:
EARTH
卫星名称:
星链-6051
卫星全名:
星链-6051 (STARLINK-6051 )
卫星状态:
在轨 (已飞行1213 天)
发射日期:
2023-05-10 UTC
国别 :
美国 (US)
星等 :
--
Orbit Information
数据来源 国际轨道数据
星历时间: 2026-09-04T19:20:23+0800
8小时前
查看轨道信息
半长轴: 6950.179km
偏心率: 0.0002843
轨道倾角: 70.000°
近地点辐角 270.506°
升交点赤经 53.769°
平近点角 89.578°
近地点: 570.066km
远地点: 574.018km
周期: 96.107分钟
每日圈数: 14.983346
Detailed Information
固有亮度:
5
最大亮度:
2.5
卫星平台:
Starlink v1.5
覆盖范围:
全球
运营商:
太空探索技术公司
运营商所在国:
美国
制造商(研发单位):
太空探索技术公司
制造商所在国:
美国
使用方式:
暂无
Satellite Introduction
星链(Starlink)计划是由太空探索技术公司(SpaceX)提出的一个巨型低轨卫星互联网星座项目,计划在2019年至2024年间在太空搭建由约1.2万颗卫星组成的“星链”网络,其中1584颗将部署在地球上空550千米处的近地轨道,并从2020年开始工作。该卫星仍在工作。
2D Orbit Map
3D Orbit Map
Orbit Altitude Analysis Chart
Orbit Inclination Analysis Chart
Orbit Comprehensive Analysis Chart
View Comprehensive Chart
Conjunction Data List
Event ID Objects TCA Miss Dist (km) Collision Risk Probability Collision Risk Index (CRI) Action
CDM_260906-070504-003705-646322
2026-09-06T
07:05:24+0000
1.071 km
极远距离
2.129719E-5 中风险 0.62